Date,Time,WBGT,Tg
2021/8/1,1:00,22.7,23.2
2021/8/1,2:00,23.1,23.6
2021/8/1,3:00,22.9,23.4
2021/8/1,4:00,23.0,23.6
2021/8/1,5:00,23.3,24.7
2021/8/1,6:00,24.5,27.3
2021/8/1,7:00,25.5,29.8
2021/8/1,8:00,24.5,29.7
2021/8/1,9:00,23.9,30.0
2021/8/1,10:00,24.2,31.5
2021/8/1,11:00,24.9,32.4
2021/8/1,12:00,25.3,33.0
2021/8/1,13:00,25.8,33.2
2021/8/1,14:00,26.8,33.9
2021/8/1,15:00,27.1,33.2
2021/8/1,16:00,26.2,31.2
2021/8/1,17:00,26.3,29.9
2021/8/1,18:00,25.5,27.4
2021/8/1,19:00,25.4,26.0
2021/8/1,20:00,25.4,25.8
2021/8/1,21:00,24.8,25.1
2021/8/1,22:00,24.6,24.8
2021/8/1,23:00,24.2,24.4
2021/8/1,24:00,23.9,24.1
2021/8/2,1:00,23.5,23.7
2021/8/2,2:00,23.7,23.9
2021/8/2,3:00,23.6,23.7
2021/8/2,4:00,23.8,23.9
2021/8/2,5:00,24.0,24.7
2021/8/2,6:00,24.4,26.8
2021/8/2,7:00,25.4,29.4
2021/8/2,8:00,28.5,41.8
2021/8/2,9:00,26.5,33.3
2021/8/2,10:00,29.6,44.2
2021/8/2,11:00,29.6,45.1
2021/8/2,12:00,30.3,45.9
2021/8/2,13:00,31.7,47.7
2021/8/2,14:00,31.8,47.2
2021/8/2,15:00,29.1,36.0
2021/8/2,16:00,29.6,41.8
2021/8/2,17:00,28.5,37.9
2021/8/2,18:00,27.3,32.4
2021/8/2,19:00,25.9,27.4
2021/8/2,20:00,25.2,26.6
2021/8/2,21:00,24.9,26.1
2021/8/2,22:00,25.2,26.1
2021/8/2,23:00,25.3,26.1
2021/8/2,24:00,25.5,26.3
2021/8/3,1:00,25.6,26.2
2021/8/3,2:00,25.6,26.0
2021/8/3,3:00,25.5,25.8
2021/8/3,4:00,25.3,25.7
2021/8/3,5:00,25.5,26.5
2021/8/3,6:00,25.9,28.7
2021/8/3,7:00,26.2,30.8
2021/8/3,8:00,26.8,32.5
2021/8/3,9:00,26.8,33.8
2021/8/3,10:00,29.3,44.5
2021/8/3,11:00,28.3,37.2
2021/8/3,12:00,28.0,37.5
2021/8/3,13:00,30.4,46.9
2021/8/3,14:00,31.4,47.8
2021/8/3,15:00,31.6,47.1
2021/8/3,16:00,31.4,45.6
2021/8/3,17:00,30.3,40.6
2021/8/3,18:00,28.8,33.7
2021/8/3,19:00,27.5,29.0
2021/8/3,20:00,26.9,28.0
2021/8/3,21:00,26.0,26.9
2021/8/3,22:00,25.6,26.3
2021/8/3,23:00,25.3,25.9
2021/8/3,24:00,25.4,25.8
2021/8/4,1:00,25.1,25.5
2021/8/4,2:00,25.2,25.5
2021/8/4,3:00,24.9,25.2
2021/8/4,4:00,25.1,25.3
2021/8/4,5:00,25.6,28.2
2021/8/4,6:00,25.6,28.1
2021/8/4,7:00,26.3,30.5
2021/8/4,8:00,28.9,41.9
2021/8/4,9:00,30.9,45.6
2021/8/4,10:00,32.2,47.6
2021/8/4,11:00,33.5,49.5
2021/8/4,12:00,33.7,50.5
2021/8/4,13:00,34.7,50.5
2021/8/4,14:00,32.0,47.2
2021/8/4,15:00,34.0,49.3
2021/8/4,16:00,29.9,35.9
2021/8/4,17:00,30.5,34.8
2021/8/4,18:00,28.0,30.6
2021/8/4,19:00,26.6,27.6
2021/8/4,20:00,25.7,26.4
2021/8/4,21:00,25.8,26.4
2021/8/4,22:00,25.6,26.0
2021/8/4,23:00,25.6,25.9
2021/8/4,24:00,25.4,25.7
2021/8/5,1:00,25.6,25.9
2021/8/5,2:00,25.6,25.9
2021/8/5,3:00,25.3,25.6
2021/8/5,4:00,24.9,25.2
2021/8/5,5:00,25.2,26.1
2021/8/5,6:00,25.5,27.9
2021/8/5,7:00,28.6,40.1
2021/8/5,8:00,30.8,44.5
2021/8/5,9:00,31.4,46.3
2021/8/5,10:00,31.2,47.3
2021/8/5,11:00,31.2,48.6
2021/8/5,12:00,31.1,49.3
2021/8/5,13:00,31.2,50.4
2021/8/5,14:00,32.3,51.6
2021/8/5,15:00,32.0,50.1
2021/8/5,16:00,32.7,48.2
2021/8/5,17:00,32.5,43.3
2021/8/5,18:00,28.0,31.3
2021/8/5,19:00,27.7,29.4
2021/8/5,20:00,27.1,28.5
2021/8/5,21:00,26.7,27.8
2021/8/5,22:00,26.3,27.1
2021/8/5,23:00,26.1,26.6
2021/8/5,24:00,25.3,25.7
2021/8/6,1:00,24.9,25.3
2021/8/6,2:00,24.6,25.0
2021/8/6,3:00,24.8,25.1
2021/8/6,4:00,25.1,25.4
2021/8/6,5:00,25.4,26.3
2021/8/6,6:00,25.6,28.2
2021/8/6,7:00,26.0,30.3
2021/8/6,8:00,26.7,32.7
2021/8/6,9:00,26.5,33.5
2021/8/6,10:00,29.4,44.9
2021/8/6,11:00,29.7,45.6
2021/8/6,12:00,30.7,46.4
2021/8/6,13:00,31.4,47.8
2021/8/6,14:00,31.5,48.6
2021/8/6,15:00,31.2,48.2
2021/8/6,16:00,30.3,45.1
2021/8/6,17:00,29.8,40.7
2021/8/6,18:00,27.4,32.8
2021/8/6,19:00,26.0,27.9
2021/8/6,20:00,25.4,26.8
2021/8/6,21:00,24.8,25.9
2021/8/6,22:00,24.7,25.7
2021/8/6,23:00,25.0,25.7
2021/8/6,24:00,25.2,25.8
2021/8/7,1:00,25.1,25.7
2021/8/7,2:00,24.9,25.5
2021/8/7,3:00,24.5,24.9
2021/8/7,4:00,24.2,24.6
2021/8/7,5:00,24.5,25.4
2021/8/7,6:00,24.9,27.8
2021/8/7,7:00,27.7,39.2
2021/8/7,8:00,25.9,31.8
2021/8/7,9:00,29.0,44.1
2021/8/7,10:00,29.3,45.0
2021/8/7,11:00,30.0,46.1
2021/8/7,12:00,30.3,46.7
2021/8/7,13:00,30.7,47.3
2021/8/7,14:00,31.7,48.0
2021/8/7,15:00,30.8,46.0
2021/8/7,16:00,29.6,42.6
2021/8/7,17:00,28.5,38.1
2021/8/7,18:00,27.0,31.5
2021/8/7,19:00,26.0,27.4
2021/8/7,20:00,26.1,27.3
2021/8/7,21:00,26.0,27.0
2021/8/7,22:00,25.7,26.4
2021/8/7,23:00,25.5,26.1
2021/8/7,24:00,25.4,25.9
2021/8/8,1:00,25.1,25.5
2021/8/8,2:00,24.6,24.9
2021/8/8,3:00,24.6,24.9
2021/8/8,4:00,24.9,25.1
2021/8/8,5:00,24.8,25.6
2021/8/8,6:00,25.4,27.7
2021/8/8,7:00,25.7,29.6
2021/8/8,8:00,26.0,31.3
2021/8/8,9:00,26.2,32.7
2021/8/8,10:00,30.8,45.2
2021/8/8,11:00,29.4,37.1
2021/8/8,12:00,28.7,37.1
2021/8/8,13:00,27.8,36.5
2021/8/8,14:00,29.0,37.2
2021/8/8,15:00,29.8,36.8
2021/8/8,16:00,27.3,32.2
2021/8/8,17:00,25.0,28.9
2021/8/8,18:00,25.1,27.4
2021/8/8,19:00,25.4,26.2
2021/8/8,20:00,25.6,26.3
2021/8/8,21:00,25.4,25.9
2021/8/8,22:00,25.4,25.7
2021/8/8,23:00,25.1,25.4
2021/8/8,24:00,25.0,25.3
2021/8/9,1:00,24.9,25.4
2021/8/9,2:00,24.9,25.3
2021/8/9,3:00,24.7,25.1
2021/8/9,4:00,25.1,25.6
2021/8/9,5:00,25.4,26.3
2021/8/9,6:00,25.4,28.0
2021/8/9,7:00,26.7,30.8
2021/8/9,8:00,27.8,33.2
2021/8/9,9:00,28.1,34.5
2021/8/9,10:00,27.7,34.5
2021/8/9,11:00,28.9,36.7
2021/8/9,12:00,28.8,36.6
2021/8/9,13:00,27.5,34.9
2021/8/9,14:00,26.7,33.3
2021/8/9,15:00,27.3,33.1
2021/8/9,16:00,27.5,32.2
2021/8/9,17:00,27.4,30.9
2021/8/9,18:00,26.2,28.0
2021/8/9,19:00,25.1,25.8
2021/8/9,20:00,24.3,24.8
2021/8/9,21:00,24.6,25.1
2021/8/9,22:00,26.0,26.4
2021/8/9,23:00,26.1,26.4
2021/8/9,24:00,25.1,25.5
2021/8/10,1:00,25.0,25.3
2021/8/10,2:00,25.1,25.4
2021/8/10,3:00,24.9,25.2
2021/8/10,4:00,25.0,25.2
2021/8/10,5:00,25.1,25.7
2021/8/10,6:00,25.5,27.8
2021/8/10,7:00,26.1,29.9
2021/8/10,8:00,26.4,31.7
2021/8/10,9:00,26.4,32.5
2021/8/10,10:00,26.4,33.0
2021/8/10,11:00,26.7,34.1
2021/8/10,12:00,27.9,35.2
2021/8/10,13:00,22.8,29.7
2021/8/10,14:00,20.1,26.5
2021/8/10,15:00,18.7,23.8
2021/8/10,16:00,17.6,21.8
2021/8/10,17:00,17.6,20.6
2021/8/10,18:00,17.9,19.5
2021/8/10,19:00,18.5,19.6
2021/8/10,20:00,18.9,20.1
2021/8/10,21:00,18.8,19.9
2021/8/10,22:00,19.5,20.4
2021/8/10,23:00,20.8,21.7
2021/8/10,24:00,20.4,21.0
2021/8/11,1:00,20.1,20.6
2021/8/11,2:00,20.5,20.9
2021/8/11,3:00,20.3,20.7
2021/8/11,4:00,19.6,20.0
2021/8/11,5:00,20.0,21.1
2021/8/11,6:00,21.2,23.9
2021/8/11,7:00,22.2,26.6
2021/8/11,8:00,23.0,28.6
2021/8/11,9:00,24.0,30.4
2021/8/11,10:00,24.6,38.4
2021/8/11,11:00,22.0,29.0
2021/8/11,12:00,22.5,29.5
2021/8/11,13:00,21.9,28.8
2021/8/11,14:00,23.8,37.4
2021/8/11,15:00,22.4,27.9
2021/8/11,16:00,20.2,24.3
2021/8/11,17:00,19.7,22.4
2021/8/11,18:00,18.4,19.5
2021/8/11,19:00,17.7,18.1
2021/8/11,20:00,17.1,17.3
2021/8/11,21:00,17.2,17.6
2021/8/11,22:00,17.0,17.3
2021/8/11,23:00,16.8,17.1
2021/8/11,24:00,16.6,17.0
2021/8/12,1:00,16.7,17.1
2021/8/12,2:00,16.7,17.0
2021/8/12,3:00,16.4,16.7
2021/8/12,4:00,16.2,16.5
2021/8/12,5:00,16.5,17.1
2021/8/12,6:00,17.3,19.3
2021/8/12,7:00,17.5,21.1
2021/8/12,8:00,18.0,22.7
2021/8/12,9:00,18.8,24.5
2021/8/12,10:00,19.3,25.5
2021/8/12,11:00,19.5,26.1
2021/8/12,12:00,19.6,26.4
2021/8/12,13:00,19.9,26.4
2021/8/12,14:00,19.9,25.6
2021/8/12,15:00,20.1,25.2
2021/8/12,16:00,20.3,24.4
2021/8/12,17:00,19.7,22.4
2021/8/12,18:00,18.8,20.0
2021/8/12,19:00,18.3,18.7
2021/8/12,20:00,18.3,18.7
2021/8/12,21:00,18.3,18.7
2021/8/12,22:00,18.4,18.7
2021/8/12,23:00,18.1,18.3
2021/8/12,24:00,18.0,18.3
2021/8/13,1:00,18.0,18.4
2021/8/13,2:00,18.1,18.4
2021/8/13,3:00,18.1,18.4
2021/8/13,4:00,18.1,18.4
2021/8/13,5:00,18.1,18.8
2021/8/13,6:00,18.6,20.9
2021/8/13,7:00,19.2,23.1
2021/8/13,8:00,19.5,24.5
2021/8/13,9:00,19.8,25.5
2021/8/13,10:00,19.6,25.9
2021/8/13,11:00,20.3,27.0
2021/8/13,12:00,20.4,27.2
2021/8/13,13:00,20.2,26.7
2021/8/13,14:00,19.8,25.7
2021/8/13,15:00,19.1,24.1
2021/8/13,16:00,18.7,22.6
2021/8/13,17:00,18.1,20.6
2021/8/13,18:00,16.7,17.8
2021/8/13,19:00,16.1,16.5
2021/8/13,20:00,16.0,16.4
2021/8/13,21:00,16.2,16.5
2021/8/13,22:00,16.2,16.4
2021/8/13,23:00,16.2,16.3
2021/8/13,24:00,16.1,16.2
2021/8/14,1:00,15.9,16.0
2021/8/14,2:00,16.0,16.1
2021/8/14,3:00,15.6,15.9
2021/8/14,4:00,15.5,15.9
2021/8/14,5:00,15.8,16.6
2021/8/14,6:00,16.4,18.7
2021/8/14,7:00,17.1,20.7
2021/8/14,8:00,17.8,22.5
2021/8/14,9:00,18.3,24.0
2021/8/14,10:00,18.8,25.2
2021/8/14,11:00,19.3,26.2
2021/8/14,12:00,19.5,26.4
2021/8/14,13:00,20.0,26.4
2021/8/14,14:00,20.6,26.5
2021/8/14,15:00,20.0,24.9
2021/8/14,16:00,19.5,23.3
2021/8/14,17:00,18.8,21.4
2021/8/14,18:00,17.9,19.0
2021/8/14,19:00,17.5,17.9
2021/8/14,20:00,16.6,16.9
2021/8/14,21:00,16.4,16.7
2021/8/14,22:00,16.2,16.4
2021/8/14,23:00,16.1,16.3
2021/8/14,24:00,16.2,16.5
2021/8/15,1:00,16.2,16.5
2021/8/15,2:00,16.1,16.5
2021/8/15,3:00,16.2,16.5
2021/8/15,4:00,16.1,16.3
2021/8/15,5:00,16.1,16.8
2021/8/15,6:00,17.0,19.3
2021/8/15,7:00,18.1,21.6
2021/8/15,8:00,21.3,33.7
2021/8/15,9:00,22.5,35.6
2021/8/15,10:00,21.4,28.5
2021/8/15,11:00,21.4,29.1
2021/8/15,12:00,21.4,29.4
2021/8/15,13:00,22.4,30.0
2021/8/15,14:00,25.5,40.2
2021/8/15,15:00,22.9,29.1
2021/8/15,16:00,22.5,27.3
2021/8/15,17:00,21.1,24.3
2021/8/15,18:00,20.2,22.1
2021/8/15,19:00,19.3,20.4
2021/8/15,20:00,18.9,20.0
2021/8/15,21:00,18.4,19.4
2021/8/15,22:00,18.4,19.2
2021/8/15,23:00,18.0,18.7
2021/8/15,24:00,17.8,18.4
2021/8/16,1:00,17.3,17.8
2021/8/16,2:00,16.9,17.4
2021/8/16,3:00,17.0,17.5
2021/8/16,4:00,17.1,17.5
2021/8/16,5:00,17.2,17.9
2021/8/16,6:00,17.9,20.3
2021/8/16,7:00,18.6,22.4
2021/8/16,8:00,18.7,23.7
2021/8/16,9:00,19.7,25.8
2021/8/16,10:00,20.0,26.9
2021/8/16,11:00,19.9,27.4
2021/8/16,12:00,19.7,27.4
2021/8/16,13:00,20.3,27.7
2021/8/16,14:00,20.7,27.3
2021/8/16,15:00,20.8,26.5
2021/8/16,16:00,20.2,24.8
2021/8/16,17:00,19.6,22.8
2021/8/16,18:00,19.0,20.5
2021/8/16,19:00,18.3,19.1
2021/8/16,20:00,18.5,19.2
2021/8/16,21:00,18.4,19.0
2021/8/16,22:00,18.2,18.7
2021/8/16,23:00,18.2,18.6
2021/8/16,24:00,18.1,18.4
2021/8/17,1:00,18.1,18.3
2021/8/17,2:00,17.4,17.5
2021/8/17,3:00,17.2,17.3
2021/8/17,4:00,17.0,17.2
2021/8/17,5:00,17.1,17.5
2021/8/17,6:00,18.0,20.0
2021/8/17,7:00,18.6,22.1
2021/8/17,8:00,19.5,24.2
2021/8/17,9:00,20.2,25.9
2021/8/17,10:00,20.1,26.3
2021/8/17,11:00,20.7,27.1
2021/8/17,12:00,20.8,27.5
2021/8/17,13:00,22.0,28.5
2021/8/17,14:00,22.7,28.7
2021/8/17,15:00,22.3,27.3
2021/8/17,16:00,21.9,26.0
2021/8/17,17:00,21.5,24.0
2021/8/17,18:00,20.9,21.6
2021/8/17,19:00,20.6,20.6
2021/8/17,20:00,20.4,20.4
2021/8/17,21:00,20.4,20.4
2021/8/17,22:00,20.2,20.2
2021/8/17,23:00,20.0,20.0
2021/8/17,24:00,20.0,20.0
2021/8/18,1:00,20.0,20.0
2021/8/18,2:00,20.2,20.2
2021/8/18,3:00,20.3,20.3
2021/8/18,4:00,20.4,20.4
2021/8/18,5:00,20.6,20.8
2021/8/18,6:00,22.0,23.8
2021/8/18,7:00,24.1,27.5
2021/8/18,8:00,24.7,29.5
2021/8/18,9:00,25.1,31.1
2021/8/18,10:00,25.6,32.2
2021/8/18,11:00,26.8,33.9
2021/8/18,12:00,26.9,33.9
2021/8/18,13:00,27.2,34.3
2021/8/18,14:00,27.5,34.3
2021/8/18,15:00,26.7,32.7
2021/8/18,16:00,24.1,29.1
2021/8/18,17:00,24.6,27.7
2021/8/18,18:00,25.2,26.4
2021/8/18,19:00,24.7,25.1
2021/8/18,20:00,23.8,24.5
2021/8/18,21:00,23.1,24.1
2021/8/18,22:00,22.3,23.0
2021/8/18,23:00,22.1,23.1
2021/8/18,24:00,21.7,22.4
2021/8/19,1:00,20.9,21.6
2021/8/19,2:00,21.1,21.7
2021/8/19,3:00,21.6,22.1
2021/8/19,4:00,21.1,21.5
2021/8/19,5:00,20.9,21.4
2021/8/19,6:00,21.8,28.7
2021/8/19,7:00,24.5,35.3
2021/8/19,8:00,25.3,38.8
2021/8/19,9:00,26.3,41.2
2021/8/19,10:00,27.0,42.5
2021/8/19,11:00,28.0,44.1
2021/8/19,12:00,28.7,45.0
2021/8/19,13:00,28.9,45.8
2021/8/19,14:00,29.7,46.8
2021/8/19,15:00,30.5,47.2
2021/8/19,16:00,29.0,42.8
2021/8/19,17:00,27.1,32.6
2021/8/19,18:00,26.6,29.3
2021/8/19,19:00,26.1,28.1
2021/8/19,20:00,26.2,27.4
2021/8/19,21:00,24.8,25.7
2021/8/19,22:00,24.3,24.9
2021/8/19,23:00,23.8,24.3
2021/8/19,24:00,23.2,23.8
2021/8/20,1:00,22.8,23.2
2021/8/20,2:00,22.6,22.9
2021/8/20,3:00,22.0,22.4
2021/8/20,4:00,21.5,21.8
2021/8/20,5:00,21.5,22.1
2021/8/20,6:00,22.0,24.4
2021/8/20,7:00,22.6,26.9
2021/8/20,8:00,23.4,29.1
2021/8/20,9:00,23.4,30.5
2021/8/20,10:00,26.5,41.7
2021/8/20,11:00,28.0,43.5
2021/8/20,12:00,28.3,44.4
2021/8/20,13:00,29.3,46.0
2021/8/20,14:00,30.1,46.0
2021/8/20,15:00,30.9,46.1
2021/8/20,16:00,30.4,43.1
2021/8/20,17:00,27.1,31.2
2021/8/20,18:00,25.6,27.8
2021/8/20,19:00,24.2,25.5
2021/8/20,20:00,23.3,24.6
2021/8/20,21:00,22.3,23.4
2021/8/20,22:00,22.2,23.1
2021/8/20,23:00,21.8,22.6
2021/8/20,24:00,22.0,22.6
2021/8/21,1:00,21.7,22.3
2021/8/21,2:00,21.4,22.0
2021/8/21,3:00,21.3,21.8
2021/8/21,4:00,21.5,22.0
2021/8/21,5:00,21.6,22.3
2021/8/21,6:00,22.1,24.3
2021/8/21,7:00,22.1,26.0
2021/8/21,8:00,22.8,28.2
2021/8/21,9:00,23.0,29.2
2021/8/21,10:00,23.5,30.2
2021/8/21,11:00,24.3,31.4
2021/8/21,12:00,24.9,32.4
2021/8/21,13:00,25.6,32.7
2021/8/21,14:00,26.7,33.7
2021/8/21,15:00,26.2,32.2
2021/8/21,16:00,25.8,30.6
2021/8/21,17:00,25.7,29.2
2021/8/21,18:00,25.0,26.9
2021/8/21,19:00,24.8,25.7
2021/8/21,20:00,24.7,25.3
2021/8/21,21:00,24.2,24.6
2021/8/21,22:00,23.8,24.1
2021/8/21,23:00,23.7,23.9
2021/8/21,24:00,23.6,23.8
2021/8/22,1:00,23.7,23.8
2021/8/22,2:00,23.7,23.8
2021/8/22,3:00,23.5,23.6
2021/8/22,4:00,23.4,23.5
2021/8/22,5:00,22.9,23.2
2021/8/22,6:00,23.6,25.5
2021/8/22,7:00,24.1,27.6
2021/8/22,8:00,24.2,29.3
2021/8/22,9:00,24.9,30.8
2021/8/22,10:00,25.4,32.0
2021/8/22,11:00,25.9,33.3
2021/8/22,12:00,26.1,33.6
2021/8/22,13:00,26.3,33.8
2021/8/22,14:00,24.3,31.0
2021/8/22,15:00,27.3,40.2
2021/8/22,16:00,25.1,30.0
2021/8/22,17:00,26.7,35.0
2021/8/22,18:00,24.9,26.8
2021/8/22,19:00,24.9,25.7
2021/8/22,20:00,24.6,25.1
2021/8/22,21:00,24.1,24.4
2021/8/22,22:00,24.0,24.2
2021/8/22,23:00,23.8,23.9
2021/8/22,24:00,23.6,23.7
2021/8/23,1:00,23.6,23.7
2021/8/23,2:00,23.4,23.4
2021/8/23,3:00,23.2,23.2
2021/8/23,4:00,23.0,23.0
2021/8/23,5:00,22.9,23.1
2021/8/23,6:00,23.2,25.0
2021/8/23,7:00,23.9,27.2
2021/8/23,8:00,24.5,29.4
2021/8/23,9:00,27.1,41.0
2021/8/23,10:00,27.6,42.4
2021/8/23,11:00,28.9,44.7
2021/8/23,12:00,28.0,44.4
2021/8/23,13:00,28.9,44.3
2021/8/23,14:00,26.7,35.1
2021/8/23,15:00,28.6,44.2
2021/8/23,16:00,27.0,40.8
2021/8/23,17:00,25.5,35.8
2021/8/23,18:00,23.3,27.7
2021/8/23,19:00,22.6,25.1
2021/8/23,20:00,23.1,24.4
2021/8/23,21:00,22.8,23.5
2021/8/23,22:00,22.4,23.0
2021/8/23,23:00,21.8,22.1
2021/8/23,24:00,20.9,21.1
2021/8/24,1:00,20.5,20.7
2021/8/24,2:00,20.3,20.5
2021/8/24,3:00,19.7,19.9
2021/8/24,4:00,19.0,19.2
2021/8/24,5:00,18.7,18.9
2021/8/24,6:00,20.3,26.1
2021/8/24,7:00,20.8,24.5
2021/8/24,8:00,20.9,26.1
2021/8/24,9:00,24.7,39.0
2021/8/24,10:00,25.4,40.4
2021/8/24,11:00,23.8,32.4
2021/8/24,12:00,26.2,41.3
2021/8/24,13:00,25.4,33.2
2021/8/24,14:00,25.0,32.3
2021/8/24,15:00,25.1,31.1
2021/8/24,16:00,24.5,29.2
2021/8/24,17:00,23.9,27.1
2021/8/24,18:00,23.0,24.4
2021/8/24,19:00,22.9,23.6
2021/8/24,20:00,21.9,22.4
2021/8/24,21:00,21.9,22.1
2021/8/24,22:00,21.9,22.0
2021/8/24,23:00,21.8,21.8
2021/8/24,24:00,21.6,21.6
2021/8/25,1:00,21.2,21.2
2021/8/25,2:00,21.1,21.1
2021/8/25,3:00,21.3,21.3
2021/8/25,4:00,21.2,21.2
2021/8/25,5:00,21.0,21.1
2021/8/25,6:00,21.5,23.2
2021/8/25,7:00,22.3,25.5
2021/8/25,8:00,23.0,27.6
2021/8/25,9:00,23.9,29.3
2021/8/25,10:00,24.1,30.3
2021/8/25,11:00,24.7,31.4
2021/8/25,12:00,25.3,32.3
2021/8/25,13:00,27.6,34.6
2021/8/25,14:00,27.2,33.9
2021/8/25,15:00,26.9,33.3
2021/8/25,16:00,27.5,32.8
2021/8/25,17:00,26.9,30.7
2021/8/25,18:00,25.9,27.8
2021/8/25,19:00,25.2,26.2
2021/8/25,20:00,25.9,26.9
2021/8/25,21:00,24.7,25.5
2021/8/25,22:00,24.7,25.4
2021/8/25,23:00,24.0,24.7
2021/8/25,24:00,23.6,24.2
2021/8/26,1:00,22.8,23.6
2021/8/26,2:00,23.6,24.2
2021/8/26,3:00,24.9,25.6
2021/8/26,4:00,24.0,24.6
2021/8/26,5:00,25.3,25.9
2021/8/26,6:00,26.1,32.6
2021/8/26,7:00,25.9,29.9
2021/8/26,8:00,26.4,32.0
2021/8/26,9:00,28.8,43.4
2021/8/26,10:00,30.1,45.8
2021/8/26,11:00,27.8,36.5
2021/8/26,12:00,28.3,37.3
2021/8/26,13:00,25.9,33.8
2021/8/26,14:00,26.8,33.8
2021/8/26,15:00,29.2,42.8
2021/8/26,16:00,26.5,31.8
2021/8/26,17:00,26.2,30.2
2021/8/26,18:00,26.2,28.2
2021/8/26,19:00,25.3,26.8
2021/8/26,20:00,24.8,26.0
2021/8/26,21:00,24.8,25.8
2021/8/26,22:00,25.6,26.6
2021/8/26,23:00,26.1,26.8
2021/8/26,24:00,25.4,26.1
2021/8/27,1:00,24.4,24.7
2021/8/27,2:00,24.3,24.6
2021/8/27,3:00,23.9,24.1
2021/8/27,4:00,23.8,23.9
2021/8/27,5:00,23.7,23.9
2021/8/27,6:00,24.2,26.2
2021/8/27,7:00,25.8,29.8
2021/8/27,8:00,26.3,32.0
2021/8/27,9:00,29.0,43.2
2021/8/27,10:00,26.9,34.4
2021/8/27,11:00,26.0,34.8
2021/8/27,12:00,25.9,35.1
2021/8/27,13:00,26.1,35.8
2021/8/27,14:00,29.1,46.1
2021/8/27,15:00,28.6,44.9
2021/8/27,16:00,27.7,41.0
2021/8/27,17:00,25.7,35.4
2021/8/27,18:00,24.7,27.7
2021/8/27,19:00,24.5,26.2
2021/8/27,20:00,24.0,25.3
2021/8/27,21:00,23.8,24.8
2021/8/27,22:00,23.5,24.2
2021/8/27,23:00,22.6,23.2
2021/8/27,24:00,22.9,23.3
2021/8/28,1:00,21.9,22.2
2021/8/28,2:00,21.5,21.8
2021/8/28,3:00,21.1,21.4
2021/8/28,4:00,20.9,21.1
2021/8/28,5:00,20.8,21.0
2021/8/28,6:00,20.9,22.9
2021/8/28,7:00,24.4,34.1
2021/8/28,8:00,23.9,29.1
2021/8/28,9:00,23.2,29.4
2021/8/28,10:00,23.6,31.1
2021/8/28,11:00,23.6,31.5
2021/8/28,12:00,23.8,31.5
2021/8/28,13:00,22.6,29.3
2021/8/28,14:00,21.9,27.8
2021/8/28,15:00,22.1,27.5
2021/8/28,16:00,22.0,26.2
2021/8/28,17:00,22.0,24.6
2021/8/28,18:00,21.5,22.4
2021/8/28,19:00,22.4,22.9
2021/8/28,20:00,22.5,23.1
2021/8/28,21:00,21.8,22.7
2021/8/28,22:00,21.7,22.4
2021/8/28,23:00,22.1,22.4
2021/8/28,24:00,22.8,22.9
2021/8/29,1:00,22.6,22.8
2021/8/29,2:00,22.5,22.6
2021/8/29,3:00,20.5,20.6
2021/8/29,4:00,20.7,20.8
2021/8/29,5:00,20.6,20.7
2021/8/29,6:00,21.0,22.7
2021/8/29,7:00,20.7,24.2
2021/8/29,8:00,24.3,37.1
2021/8/29,9:00,26.3,41.1
2021/8/29,10:00,25.8,42.2
2021/8/29,11:00,26.0,43.5
2021/8/29,12:00,26.5,44.0
2021/8/29,13:00,24.3,35.7
2021/8/29,14:00,25.9,45.2
2021/8/29,15:00,26.1,44.5
2021/8/29,16:00,25.5,41.0
2021/8/29,17:00,23.9,34.7
2021/8/29,18:00,22.0,25.8
2021/8/29,19:00,22.4,24.4
2021/8/29,20:00,21.2,22.5
2021/8/29,21:00,20.9,21.9
2021/8/29,22:00,20.6,21.3
2021/8/29,23:00,20.4,21.1
2021/8/29,24:00,20.1,20.8
2021/8/30,1:00,20.1,20.7
2021/8/30,2:00,20.4,21.0
2021/8/30,3:00,20.7,21.1
2021/8/30,4:00,20.4,20.8
2021/8/30,5:00,20.1,20.5
2021/8/30,6:00,20.4,22.3
2021/8/30,7:00,22.9,32.3
2021/8/30,8:00,22.1,27.2
2021/8/30,9:00,22.9,28.9
2021/8/30,10:00,22.9,30.1
2021/8/30,11:00,23.7,31.2
2021/8/30,12:00,23.7,32.2
2021/8/30,13:00,23.0,32.2
2021/8/30,14:00,22.9,31.6
2021/8/30,15:00,23.4,30.6
2021/8/30,16:00,23.7,29.5
2021/8/30,17:00,23.9,28.0
2021/8/30,18:00,23.3,24.9
2021/8/30,19:00,23.1,24.3
2021/8/30,20:00,22.7,23.7
2021/8/30,21:00,21.7,22.4
2021/8/30,22:00,22.2,22.7
2021/8/30,23:00,21.1,21.9
2021/8/30,24:00,20.4,20.9
2021/8/31,1:00,20.3,20.8
2021/8/31,2:00,19.6,20.2
2021/8/31,3:00,18.9,19.3
2021/8/31,4:00,18.7,19.2
2021/8/31,5:00,18.7,19.1
2021/8/31,6:00,20.0,21.9
2021/8/31,7:00,21.8,25.4
2021/8/31,8:00,21.0,26.5
2021/8/31,9:00,21.3,28.6
2021/8/31,10:00,22.1,30.2
2021/8/31,11:00,22.7,31.8
2021/8/31,12:00,22.4,32.8
2021/8/31,13:00,22.0,33.2
2021/8/31,14:00,22.3,32.5
2021/8/31,15:00,22.2,30.6
2021/8/31,16:00,22.0,29.3
2021/8/31,17:00,20.4,26.3
2021/8/31,18:00,19.4,22.8
2021/8/31,19:00,19.7,22.9
2021/8/31,20:00,20.2,22.5
2021/8/31,21:00,19.7,21.5
2021/8/31,22:00,19.6,21.5
2021/8/31,23:00,20.1,21.2
2021/8/31,24:00,19.8,20.8
